This is the latest recevied weather packets stored in our database for station/object EA1L-13. If no packets are shown the sender has not sent any weather packets the latest 10 day(s).
| Time | Temp. | Humidity | Pressure | Rain* | Wind** | Luminosity | Snow |
|---|---|---|---|---|---|---|---|
| 1777564805 | 14.44° C | 88% | 1015.1 hPa | 0 mm | - | - | - |
| 1777563904 | 14.44° C | 88% | 1015.1 hPa | 0 mm | - | - | - |
| 1777563007 | 14.44° C | 88% | 1015.1 hPa | 0 mm | - | - | - |
| 1777562104 | 14.44° C | 88% | 1015 hPa | 0 mm | - | - | - |
| 1777561205 | 14.44° C | 88% | 1015 hPa | 0 mm | - | - | - |
| 1777560304 | 14.44° C | 88% | 1014.9 hPa | 0 mm | - | - | - |
| 1777559405 | 14.44° C | 89% | 1014.8 hPa | 0.25 mm | - | - | - |
| 1777558504 | 14.44° C | 90% | 1014.5 hPa | 0.25 mm | - | - | - |
| 1777557605 | 14.44° C | 89% | 1014.4 hPa | 0.25 mm | - | - | - |
| 1777556705 | 15° C | 88% | 1014.2 hPa | 0.25 mm | - | - | - |
| 1777555804 | 15° C | 84% | 1014 hPa | 0 mm | - | - | - |
| 1777554904 | 15.56° C | 83% | 1013.8 hPa | 0 mm | - | - | - |
| 1777554004 | 16.11° C | 81% | 1013.7 hPa | 0 mm | - | - | - |
| 1777553104 | 16.11° C | 81% | 1013.7 hPa | 0 mm | - | - | - |
| 1777552205 | 16.67° C | 81% | 1013.6 hPa | 0 mm | - | - | - |
| 1777551304 | 16.67° C | 82% | 1013.6 hPa | 0 mm | - | - | - |
| 1777550405 | 16.67° C | 81% | 1013.7 hPa | 0 mm | - | - | - |
| 1777549504 | 16.67° C | 81% | 1013.8 hPa | 0 mm | - | - | - |
| 1777548605 | 17.22° C | 82% | 1013.7 hPa | 0 mm | - | - | - |
| 1777547705 | 16.67° C | 80% | 1013.6 hPa | 0 mm | - | - | - |
| 1777546804 | 17.22° C | 80% | 1013.5 hPa | 0 mm | - | - | - |
| 1777545904 | 16.67° C | 77% | 1013.3 hPa | 0 mm | - | - | - |
| 1777545005 | 16.67° C | 77% | 1013.4 hPa | 0 mm | - | - | - |
| 1777544104 | 16.11° C | 79% | 1013.3 hPa | 0 mm | - | - | - |
| 1777543204 | 16.67° C | 86% | 1013.3 hPa | 0 mm | - | - | - |
* Rain latest hour (hover to see other rain measurements)
** Current wind speed in m/s (hover to see current wind gust speed)